MUOS-3

Last updated on Sat Jul 05 2025 00:02:46 GMT+0000 (Coordinated Universal Time)

1 40374U 15002A 25185.41929067 -.00000117 00000+0 00000+0 0 9993 2 40374 3.8697 41.0461 0054366 177.2151 199.8987 1.00271516 38103
UTC large
Height (km)
Speed (km/s)
/
Latitude / Longitude
Inclination (degrees)
Orbital Period (minutes)
Azimuth
Elevation
Range (km)
Doppler Factor

Next 0 passes for location: London (51.5072 / 0.1276)

Sorry there are no passes over London.